This is the latest recevied weather packets stored in our database for station/object N5DGC. If no packets are shown the sender has not sent any weather packets the latest 10 day(s).
| Time | Temp. | Humidity | Pressure | Rain* | Wind** | Luminosity | Snow |
|---|---|---|---|---|---|---|---|
| 1788535524 | 22.78° C | 52% | 1241.2 hPa | 0 mm | - | 158 W/m² | - |
| 1788535222 | 22.78° C | 53% | 1241.4 hPa | 0 mm | - | 131 W/m² | - |
| 1788534915 | 22.22° C | 54% | 1241.4 hPa | 0 mm | - | 112 W/m² | - |
| 1788534615 | 22.22° C | 54% | 1241.2 hPa | 0 mm | - | 89 W/m² | - |
| 1788534315 | 22.22° C | 54% | 1241.1 hPa | 0 mm | - | 83 W/m² | - |
| 1788534009 | 22.22° C | 53% | 1241.2 hPa | 0 mm | - | 68 W/m² | - |
| 1788533704 | 22.22° C | 53% | 1241.2 hPa | 0 mm | - | 60 W/m² | - |
| 1788533399 | 22.22° C | 53% | 1241.2 hPa | 0 mm | - | 68 W/m² | - |
| 1788533094 | 22.22° C | 53% | 1241.2 hPa | 0 mm | - | 80 W/m² | - |
| 1788532790 | 22.22° C | 53% | 1241.4 hPa | 0 mm | - | 89 W/m² | - |
| 1788532486 | 22.22° C | 53% | 1241.1 hPa | 0 mm | - | 92 W/m² | - |
| 1788532183 | 22.22° C | 52% | 1241 hPa | 0 mm | - | 97 W/m² | - |
| 1788531879 | 22.22° C | 52% | 1241 hPa | 0 mm | - | 93 W/m² | - |
| 1788531572 | 21.67° C | 52% | 1241.1 hPa | 0 mm | - | 83 W/m² | - |
| 1788531268 | 21.67° C | 53% | 1241.2 hPa | 0 mm | - | 52 W/m² | - |
| 1788530964 | 21.67° C | 53% | 1241.1 hPa | 0 mm | - | 64 W/m² | - |
| 1788530664 | 21.11° C | 53% | 1241.1 hPa | 0 mm | - | 79 W/m² | - |
| 1788530363 | 21.11° C | 54% | 1241.1 hPa | 0 mm | - | 76 W/m² | - |
| 1788530063 | 20.56° C | 54% | 1241.1 hPa | 0 mm | - | 65 W/m² | - |
| 1788529759 | 20.56° C | 54% | 1240.8 hPa | 0 mm | - | 51 W/m² | - |
| 1788529459 | 20.56° C | 54% | 1240.9 hPa | 0 mm | - | 42 W/m² | - |
| 1788529165 | 20.56° C | 53% | 1240.9 hPa | 0 mm | - | 28 W/m² | - |
| 1788528854 | 20.56° C | 54% | 1240.9 hPa | 0 mm | - | 30 W/m² | - |
| 1788528549 | 20° C | 55% | 1240.9 hPa | 0 mm | - | 29 W/m² | - |
| 1788528245 | 20° C | 55% | 1240.5 hPa | 0 mm | - | 26 W/m² | - |
* Rain latest hour (hover to see other rain measurements)
** Current wind speed in m/s (hover to see current wind gust speed)